Weather Roundup
Issued by NWS Springfield, MO

Home | Current Version | Previous Version | Text Only | Print | Product List | Glossary On
Versions: 1 2 3 4 5 6 7 8 9 10 11 12 13 14 15 16 17 18 19 20 21 22 23 24 25 26 27 28 29 30 31 32 33 34 35 36 37 38 39 40 41 42 43 44 45 46 47 48 49 50
000
NZUS99 KSGF 220107
HRRSGF

HOURLY WEATHER
NATIONAL WEATHER SERVICE SPRINGFIELD MO
700 PM CST SAT JAN 21 2017

......SGF CWA......

CITY           SKY/WX    TMP DP  RH WIND       PRES   REMARKS
SPRINGFIELD    CLOUDY    57  42  57 CALM      29.49R
JOPLIN         CLOUDY    53  46  77 VRB5      29.46F
WEST PLAINS    CLOUDY    59  46  62 SE3       29.53F
ROLLA          MOCLDY    51  41  68 NE5       29.51S
OSAGE BEACH    CLOUDY    54  37  52 NE3       29.52S
BRANSON        CLOUDY    59  39  47 CALM      29.50S THUNDER

......SURROUNDING SGF CWA......

CITY           SKY/WX    TMP DP  RH WIND       PRES   REMARKS
CHANUTE        CLOUDY    51  40  65 E8        29.46F
PARSONS        LGT RAIN  50  43  77 E5        29.45F
COFFEYVILLE    CLOUDY    50  45  83 E10       29.43F
EMPORIA        LGT RAIN  45  44  97 N7        29.48F
GROVE OK       CLOUDY    57  50  77 E5        29.44F
ROGERS AR      CLOUDY    53  50  89 E10       29.46F
SILOAM SPRINGS CLOUDY    55  46  71 E7        29.43F
HARRISON AR    MOCLDY    58  44  60 S6        29.52R THUNDER
NEAR YELLVILLE CLOUDY    61  45  55 CALM      29.47S

......KANSAS AND MISSOURI......

CITY           SKY/WX    TMP DP  RH WIND       PRES   REMARKS
KANSAS CTY INT CLOUDY    50  40  68 E3        29.51R
DOWNTOWN KC    LGT RAIN  51  43  74 CALM      29.51R
COLUMBIA       MOCLDY    56  38  50 NW5       29.53R
SEDALIA        CLOUDY    52  42  69 E3        29.54R
ST JOSEPH      PTCLDY    41  40  96 N3        29.53R
ST LOUIS       CLOUDY    59  40  49 CALM      29.54R
SPIRIT OF STL  PTCLDY    53  43  68 CALM      29.53R
KIRKSVILLE     FOG       38  38 100 CALM      29.56S VSB 1/2
WICHITA        CLOUDY    47  43  86 E10       29.42S
TOPEKA         LGT RAIN  50  43  77 CALM      29.51R
OLATHE         LGT RAIN  47  44  90 NE3       29.51R

......TENNESSEE......

CITY           SKY/WX    TMP DP  RH WIND       PRES   REMARKS
MEMPHIS        MOCLDY    64  52  64 SE7       29.54S
NASHVILLE      CLOUDY    61  49  64 CALM      29.64R

......ARKANSAS.......

CITY           SKY/WX    TMP DP  RH WIND       PRES   REMARKS
FAYETTEVILLE   CLOUDY    52  50  93 CALM      29.44F
FT SMITH       MOCLDY    57  51  80 NE3       29.42S
LITTLE ROCK    CLOUDY    59  58  96 N6        29.49F

......OKLAHOMA.......

CITY           SKY/WX    TMP DP  RH WIND       PRES   REMARKS
TULSA          CLOUDY    55  45  68 CALM      29.41S
PONCA CITY     CLOUDY    51  37  58 E6        29.40R
MCALESTER      CLOUDY    61  54  77 S7        29.41F
OKLAHOMA CITY  MOCLDY    57  38  48 E10       29.36S

......IOWA............

CITY           SKY/WX    TMP DP  RH WIND       PRES   REMARKS
DES MOINES     PTCLDY    41  38  89 S3        29.54R
QUAD CITIES    CLOUDY    43  40  89 CALM      29.56R

......ILLINOIS........

CITY           SKY/WX    TMP DP  RH WIND       PRES   REMARKS
QUINCY         PTCLDY    48  42  80 NW8       29.55R
CHICAGO        CLEAR     48  42  80 SW3       29.54R



USA.gov is the U.S. government's official web portal to all federal, state and local government web resources and services.